When you browse on this site, cookies collect data to enhance your experience and personalize the content and advertising you see.
Visit our Privacy Policy to learn more. By continuing to use the site, you agree to this use of cookies and data.
  • Em Portugal
  • Lista de países
  • Para 7 dias
  • Temperatura da água
  • Mapa do tempo
  • Widgets de tempo
  • user-avatar
    Iniciar Sessão

    Previsão horária em Krasnopole

    Hoje, 31 Maio, Domingo

    Tempo Temperatura Precipitação Vento Pressão Humidade
    00:00 +13°C° 0.1 mm 2 m/s 742 mmHg 92%
    01:00 +13°C° 0.1 mm 2 m/s 742 mmHg 94%
    02:00 +12°C° 0 mm 2 m/s 742 mmHg 93%
    03:00 +12°C° 0 mm 2 m/s 742 mmHg 92%
    04:00 +10°C° 0 mm 3 m/s 742 mmHg 86%
    05:00 +10°C° 0.1 mm 3 m/s 741 mmHg 85%
    06:00 +10°C° 0.1 mm 3 m/s 741 mmHg 84%
    07:00 +10°C° 0.1 mm 4 m/s 741 mmHg 83%
    08:00 +10°C° 0 mm 4 m/s 741 mmHg 77%
    09:00 +10°C° 0 mm 4 m/s 740 mmHg 72%
    10:00 +10°C° 0 mm 4 m/s 741 mmHg 66%
    11:00 +10°C° 0 mm 4 m/s 740 mmHg 66%
    12:00 +11°C° 0 mm 4 m/s 740 mmHg 65%
    13:00 +11°C° 0 mm 4 m/s 740 mmHg 65%
    14:00 +10°C° 0 mm 4 m/s 740 mmHg 67%
    15:00 +10°C° 0 mm 4 m/s 740 mmHg 69%
    16:00 +10°C° 0 mm 4 m/s 740 mmHg 70%
    17:00 +8°C° 0 mm 4 m/s 739 mmHg 72%
    18:00 +8°C° 0 mm 4 m/s 739 mmHg 73%
    19:00 +8°C° 0 mm 4 m/s 739 mmHg 75%
    20:00 +7°C° 0.1 mm 4 m/s 738 mmHg 77%
    21:00 +7°C° 0.1 mm 4 m/s 738 mmHg 79%
    22:00 +6°C° 0.1 mm 4 m/s 738 mmHg 81%
    23:00 +6°C° 2.7 mm 4 m/s 737 mmHg 86%

    Amanhã, 1 Junho, Segunda-feira

    Tempo Temperatura Precipitação Vento Pressão Humidade
    00:00 +7°C° 2.7 mm 3 m/s 736 mmHg 91%
    01:00 +5°C° 2.7 mm 3 m/s 736 mmHg 96%
    02:00 +5°C° 1.8 mm 4 m/s 735 mmHg 96%
    03:00 +5°C° 1.8 mm 4 m/s 735 mmHg 96%
    04:00 +5°C° 1.8 mm 5 m/s 735 mmHg 96%
    05:00 +6°C° 0.3 mm 4 m/s 735 mmHg 96%
    06:00 +6°C° 0.3 mm 4 m/s 735 mmHg 97%
    07:00 +7°C° 0.3 mm 3 m/s 734 mmHg 97%
    08:00 +7°C° 0.4 mm 3 m/s 735 mmHg 97%
    09:00 +7°C° 0.4 mm 3 m/s 735 mmHg 97%
    10:00 +7°C° 0.4 mm 3 m/s 736 mmHg 97%
    11:00 +8°C° 0.2 mm 2 m/s 736 mmHg 97%
    12:00 +8°C° 0.2 mm 2 m/s 737 mmHg 97%
    13:00 +8°C° 0.2 mm 2 m/s 737 mmHg 96%
    14:00 +8°C° 0.2 mm 2 m/s 738 mmHg 96%
    15:00 +8°C° 0.2 mm 3 m/s 738 mmHg 96%
    16:00 +7°C° 0.2 mm 3 m/s 739 mmHg 96%
    17:00 +7°C° 0.2 mm 3 m/s 739 mmHg 96%
    18:00 +6°C° 0.2 mm 2 m/s 739 mmHg 97%
    19:00 +6°C° 0.2 mm 2 m/s 739 mmHg 97%
    20:00 +6°C° 0.2 mm 2 m/s 740 mmHg 97%
    21:00 +6°C° 0.2 mm 2 m/s 740 mmHg 97%
    22:00 +7°C° 0.2 mm 1 m/s 741 mmHg 97%
    23:00 +7°C° 0 mm 1 m/s 741 mmHg 97%

    Depois de amanhã, 2 Junho, Terça-feira

    Tempo Temperatura Precipitação Vento Pressão Humidade
    00:00 +7°C° 0 mm 1 m/s 741 mmHg 98%
    01:00 +7°C° 0 mm 1 m/s 742 mmHg 98%
    02:00 +7°C° 0 mm 1 m/s 742 mmHg 97%
    03:00 +6°C° 0 mm 2 m/s 742 mmHg 97%
    04:00 +6°C° 0 mm 2 m/s 743 mmHg 97%
    05:00 +6°C° 0 mm 2 m/s 743 mmHg 95%
    06:00 +7°C° 0 mm 2 m/s 743 mmHg 93%
    07:00 +7°C° 0 mm 2 m/s 743 mmHg 91%
    08:00 +9°C° 0.1 mm 2 m/s 743 mmHg 83%
    09:00 +10°C° 0.1 mm 2 m/s 744 mmHg 74%
    10:00 +13°C° 0.1 mm 2 m/s 744 mmHg 65%
    11:00 +14°C° 0 mm 1 m/s 744 mmHg 59%
    12:00 +16°C° 0 mm 1 m/s 744 mmHg 52%
    13:00 +17°C° 0 mm 0 m/s 744 mmHg 46%
    14:00 +18°C° 0 mm 1 m/s 744 mmHg 46%
    15:00 +18°C° 0 mm 1 m/s 744 mmHg 47%
    16:00 +16°C° 0 mm 1 m/s 744 mmHg 47%
    17:00 +16°C° 0 mm 1 m/s 744 mmHg 53%
    18:00 +15°C° 0 mm 1 m/s 744 mmHg 59%
    19:00 +14°C° 0 mm 1 m/s 744 mmHg 64%
    20:00 +12°C° 0 mm 1 m/s 744 mmHg 71%
    21:00 +10°C° 0 mm 1 m/s 744 mmHg 77%
    22:00 +9°C° 0 mm 1 m/s 745 mmHg 84%
    23:00 +8°C° 0 mm 1 m/s 745 mmHg 85%

    3 Junho, Quarta-feira

    Tempo Temperatura Precipitação Vento Pressão Humidade
    00:00 +8°C° 0 mm 1 m/s 745 mmHg 87%
    01:00 +7°C° 0 mm 1 m/s 745 mmHg 89%
    02:00 +7°C° 0 mm 1 m/s 745 mmHg 90%
    03:00 +7°C° 0 mm 1 m/s 745 mmHg 90%
    04:00 +6°C° 0 mm 1 m/s 745 mmHg 91%
    05:00 +9°C° 0 mm 1 m/s 745 mmHg 82%
    06:00 +11°C° 0 mm 1 m/s 745 mmHg 73%
    07:00 +13°C° 0 mm 1 m/s 745 mmHg 65%
    08:00 +14°C° 0 mm 1 m/s 745 mmHg 58%
    09:00 +16°C° 0 mm 1 m/s 745 mmHg 51%
    10:00 +19°C° 0 mm 1 m/s 745 mmHg 44%
    11:00 +18°C° 0 mm 1 m/s 745 mmHg 44%
    12:00 +18°C° 0 mm 1 m/s 745 mmHg 43%
    13:00 +18°C° 0 mm 1 m/s 744 mmHg 42%
    14:00 +18°C° 0 mm 1 m/s 744 mmHg 43%
    15:00 +18°C° 0 mm 1 m/s 744 mmHg 44%
    16:00 +18°C° 0 mm 1 m/s 744 mmHg 45%
    17:00 +16°C° 0 mm 1 m/s 744 mmHg 53%
    18:00 +15°C° 0 mm 2 m/s 744 mmHg 60%
    19:00 +14°C° 0 mm 2 m/s 744 mmHg 68%
    20:00 +13°C° 0 mm 2 m/s 745 mmHg 75%
    21:00 +11°C° 0 mm 1 m/s 745 mmHg 82%
    22:00 +9°C° 0 mm 1 m/s 745 mmHg 89%
    23:00 +8°C° 0 mm 1 m/s 746 mmHg 90%

    4 Junho, Quinta-feira

    Tempo Temperatura Precipitação Vento Pressão Humidade
    00:00 +8°C° 0 mm 1 m/s 746 mmHg 91%
    01:00 +7°C° 0 mm 1 m/s 746 mmHg 92%
    02:00 +7°C° 0 mm 1 m/s 746 mmHg 92%
    03:00 +7°C° 0 mm 1 m/s 746 mmHg 92%
    04:00 +7°C° 0 mm 1 m/s 747 mmHg 92%
    05:00 +9°C° 0 mm 1 m/s 747 mmHg 83%
    06:00 +11°C° 0 mm 1 m/s 747 mmHg 74%
    07:00 +13°C° 0 mm 1 m/s 747 mmHg 65%
    08:00 +15°C° 0 mm 1 m/s 747 mmHg 58%
    09:00 +16°C° 0 mm 2 m/s 747 mmHg 52%
    10:00 +17°C° 0 mm 2 m/s 747 mmHg 45%
    11:00 +18°C° 0 mm 2 m/s 747 mmHg 42%
    12:00 +19°C° 0 mm 2 m/s 747 mmHg 39%
    13:00 +20°C° 0 mm 2 m/s 746 mmHg 36%
    14:00 +20°C° 0 mm 2 m/s 746 mmHg 36%
    15:00 +20°C° 0 mm 2 m/s 746 mmHg 36%
    16:00 +20°C° 0 mm 2 m/s 746 mmHg 36%
    17:00 +20°C° 0 mm 1 m/s 746 mmHg 44%
    18:00 +19°C° 0 mm 1 m/s 746 mmHg 51%
    19:00 +18°C° 0 mm 1 m/s 746 mmHg 58%
    20:00 +15°C° 0 mm 1 m/s 746 mmHg 62%
    21:00 +12°C° 0 mm 1 m/s 747 mmHg 67%
    22:00 +9°C° 0 mm 0 m/s 747 mmHg 71%
    23:00 +9°C° 0 mm 0 m/s 747 mmHg 72%

    5 Junho, Sexta-feira

    Tempo Temperatura Precipitação Vento Pressão Humidade
    00:00 +8°C° 0 mm 0 m/s 747 mmHg 72%
    01:00 +8°C° 0 mm 0 m/s 747 mmHg 73%
    02:00 +8°C° 0 mm 0 m/s 748 mmHg 74%
    03:00 +8°C° 0 mm 0 m/s 748 mmHg 74%
    04:00 +8°C° 0 mm 0 m/s 748 mmHg 75%
    05:00 +10°C° 0 mm 0 m/s 749 mmHg 68%
    06:00 +13°C° 0 mm 0 m/s 749 mmHg 61%
    07:00 +15°C° 0 mm 0 m/s 749 mmHg 54%
    08:00 +19°C° 0 mm 1 m/s 749 mmHg 48%
    09:00 +20°C° 0 mm 1 m/s 749 mmHg 43%
    10:00 +22°C° 0 mm 1 m/s 749 mmHg 37%
    11:00 +22°C° 0 mm 1 m/s 749 mmHg 35%
    12:00 +23°C° 0 mm 2 m/s 749 mmHg 34%
    13:00 +23°C° 0 mm 2 m/s 749 mmHg 32%
    14:00 +23°C° 0 mm 2 m/s 748 mmHg 33%
    15:00 +23°C° 0 mm 2 m/s 748 mmHg 33%
    16:00 +23°C° 0 mm 1 m/s 748 mmHg 34%
    17:00 +22°C° 0 mm 1 m/s 748 mmHg 41%
    18:00 +21°C° 0 mm 1 m/s 748 mmHg 48%
    19:00 +20°C° 0 mm 1 m/s 748 mmHg 54%
    20:00 +18°C° 0 mm 1 m/s 748 mmHg 58%
    21:00 +15°C° 0 mm 1 m/s 749 mmHg 61%
    22:00 +13°C° 0 mm 1 m/s 749 mmHg 64%
    23:00 +13°C° 0 mm 2 m/s 749 mmHg 69%
    Mostrar mais